This demonstration page uses our WeatherBlox Daily Observations layout. Learn more.

Left ArrowRight Arrow

34.16533, -84.80231

Hourly Observations for May 1, 2017

Temp ( °F °C ) Dew Point ( °F °C ) Humidity (%) Winds ( mph kmh ) Pressure ( in mb ) Visibility ( mi km ) Precip ( " mm )
12:53 am 00:53 Mostly Clear 66 18.9 64 17.8 93 93 ESE 7 11 29.89 1012 10 16 0.02 0.51
1:53 am 01:53 Clear 67 19.4 64 17.8 91 91 E 5 7 29.86 1011 10 16 0.00 0.00
2:53 am 02:53 Clear 67 19.4 64 17.8 91 91 SE 3 6 29.85 1011 10 16 0.00 0.00
3:53 am 03:53 Clear 67 19.4 64 17.8 91 91 Calm 29.86 1011 10 16 0.00 0.00
4:53 am 04:53 Clear 67 19.4 64 17.8 91 91 Calm 29.85 1011 10 16 0.00 0.00
5:53 am 05:53 Mostly Clear with Light Rain 67 19.4 64 17.8 91 91 SE 3 6 29.85 1011 10 16 0.00 0.03
6:53 am 06:53 Mostly Cloudy 67 19.4 65 18.3 93 93 VRB 6 9 29.82 1010 10 16 0.05 1.27
7:53 am 07:53 Cloudy with Light Rain 69 20.6 66 18.9 90 90 S 10 17 29.83 1010 8 13 0.03 0.76
8:14 am 08:14 Cloudy with Heavy Rain 68 20 66 18.9 93 93 SSE 7 11 29.85 1011 2 3 0.08 2.03
8:24 am 08:24 Cloudy with Heavy Rain 68 20 67 19.4 96 96 VRB 3 6 29.88 1012 1 1 0.26 6.60
8:33 am 08:33 Cloudy with Light Rain 68 20 67 19.4 96 96 SSW 5 7 29.88 1012 1 2 0.28 7.11
8:41 am 08:41 Cloudy 69 20.6 67 19.4 93 93 SSW 7 11 29.88 1012 10 16 0.28 7.11
8:53 am 08:53 Cloudy with Light Rain 69 20.6 66 18.9 90 90 SSW 7 11 29.85 1011 8 13 0.29 7.37
9:02 am 09:02 Cloudy with Light Rain 64 17.8 62 16.7 93 93 VRB 5 7 29.91 1013 4 6 0.01 0.25
9:22 am 09:22 Cloudy 62 16.7 59 15 90 90 VRB 6 9 29.91 1013 10 16 0.01 0.25
9:32 am 09:32 Cloudy 61 16.1 57 13.9 87 87 VRB 5 7 29.94 1014 10 16 0.01 0.25
9:46 am 09:46 Cloudy with Light Rain 60 15.6 56 13.3 86 86 VRB 3 6 29.94 1014 10 16 0.01 0.25
9:53 am 09:53 Cloudy 60 15.6 57 13.9 90 90 VRB 3 6 29.90 1013 10 16 0.01 0.25
10:53 am 10:53 Cloudy 62 16.7 51 10.6 67 67 VRB 5 7 29.92 1013 10 16 0.00 0.00
11:53 am 11:53 Cloudy 61 16.1 48 8.9 63 63 VRB 7 11 29.93 1014 10 16 0.00 0.00
12:53 pm 12:53 Cloudy 63 17.2 49 9.4 60 60 S 5 7 29.90 1012 10 16 0.00 0.00
1:53 pm 13:53 Mostly Cloudy 69 20.6 50 10 51 51 SSW 8 13 29.88 1012 10 16 0.00 0.00
2:53 pm 14:53 Sunny 72 22.2 48 8.9 43 43 S 9 15 29.85 1011 10 16 0.00 0.00
3:53 pm 15:53 Sunny 75 23.9 46 7.8 36 36 SW 9 15 29.82 1010 10 16 0.00 0.00
4:53 pm 16:53 Sunny 75 23.9 45 7.2 34 34 SSW 8 13 29.80 1009 10 16 0.00 0.00
5:53 pm 17:53 Sunny 76 24.4 42 5.6 30 30 undefined N/A 29.80 1009 10 16 0.00 0.00
6:53 pm 18:53 Sunny 74 23.3 40 4.4 29 29 VRB 5 7 29.81 1010 10 16 0.00 0.00
7:53 pm 19:53 Sunny 71 21.7 36 2.2 28 28 VRB 3 6 29.82 1010 10 16 0.00 0.00
8:53 pm 20:53 Clear 68 20 38 3.3 33 33 Calm 29.84 1010 10 16 0.00 0.00
9:53 pm 21:53 Clear 63 17.2 41 5 45 45 Calm 29.87 1012 10 16 0.00 0.00
10:53 pm 22:53 Clear 64 17.8 39 3.9 40 40 VRB 3 6 29.89 1012 10 16 0.00 0.00
11:53 pm 23:53 Clear 61 16.1 40 4.4 46 46 Calm 29.91 1013 10 16 0.00 0.00

Powered by AerisWeather